STARLINK-35034, 65431

Orbit data source: Space-Track

STARLINK-35034, 65431 is a payload satellite owned by SpaceX/Seattle (US) in LEO that was launched on Sun, 31 Aug 2025 UTC via an FALCON 9 launch vehicle from the Air Force Eastern Test Range (AFETR). Payload-class satellites include a variety of spacecraft equipped with specific instruments for various scientific and technological missions. These include communications satellites like Starlink; space stations such as the ISS; scientific satellites like the Hubble; Earth observation satellites from companies like Planet Labs, Umbra, and HawkEye 360; GPS; miniature CubeSats for education and research; and military/defense satellites.

Loading next visibility...
Identifier
65431, 2025-192AD
Orbit
LEO
Country
Flag of USUS
Related business
Manufacturer
SpaceX/Seattle
Mission
Operational Commercial Communications
Bus & Motor
STARLINK V2MO, Unknown motor
Mass
575 kg wet, ~530 kg dry
Launch date (UTC)
2025-08-31 (10 months ago)
Launch vehicle
FALCON 9
Launch site
Air Force Eastern Test Range (AFETR)
Object type
Payload
Rocket body
Debris
Shape & HBR
Box + 2 Pan, 17.7 m
Radar Cross Section
36.964 m², Large (>1 m²)

Expand to show TLE details & history
Last TLE update: 1 day ago

TLE from 1 day ago
0 STARLINK-35034
1 65431U 25192AD  26170.59335845  .00026498  00000-0  90261-3 0  9996
2 65431  53.1597 119.1867 0001252  84.9028 275.2116 15.30235097 44989
Epoch: 2026-06-19T14:14Z
TLE epoch observation values (Epoch: 2026-06-19T14:14:26.170Z)
Latitude
0.00003°
Longitude
-2.24243°
Altitude
475.932 km
Speed
7.629 km/s
True Right ascension
07h 56m 44s
True Declination
0° 00' 00"
Sunlit
Object was in daylight at epoch
Visualization orbit readout
Latitude
Unknown
Longitude
Unknown
Altitude
Unknown
Speed
Unknown
Apparent Right ascension
Unknown
Apparent Declination
Unknown
Sunlit
N/A
Visualization observer readout
Local Sidereal Time
07:17:27
Azimuth
Unknown
Elevation
Unknown
Doppler factor
Unknown
Orbital elements
Apogee altitude
476.225 km
Perigee altitude
474.509 km
Semi-major axis
6,853.504 km
Eccentricity
0.00013
Inclination
53.1597°
RAAN
119.1867°
Arg. of periapsis
84.9028°
True anomaly
275.19731°
Mean anomaly
275.2116°
Eccentric anomaly
275.20446°
Mean motion
3.82538 °/min
Orbital period
94.11 mins
BSTAR
0.00090261
Loading maneuver chart data...
Computing Atmospheric mass density...
Loading historical data...
Loading historical data...
Loading historical data...
Loading historical data...
Loading historical data...
Loading historical data...
Loading historical data...

Documentation

Showing up to 5 results
|